Location: Natural Bridges National Monument
(37.6093°N, 109.9767°W)
Time: 06:53:40
(UTC-07:00)

Cosmos 1727 Rocket - Visible Passes

Search period start: 18 January 2018 00:00
Search period end: 28 January 2018 00:00
Orbit: 960 x 997 km, 82.9° (Epoch: 18 January)

Date Brightness Start Highest point End Pass type
(mag) Time Alt. Az. Time Alt. Az. Time Alt. Az.
20 Jan 6.5 06:23:36 10° NNE 06:27:48 18° ENE 06:32:01 10° ESE visible
21 Jan 5.8 06:48:52 10° NNE 06:54:31 34° ENE 07:00:11 10° SE visible
21 Jan 6.1 20:16:23 10° S 20:17:08 14° S 20:17:08 14° S visible
22 Jan 5.9 18:59:37 10° SE 18:59:58 11° SE 18:59:58 11° SE visible
22 Jan 5.9 20:42:59 10° SSW 20:44:48 20° SSW 20:44:48 20° SSW visible
23 Jan 6.6 05:57:32 10° NNE 06:01:23 17° ENE 06:05:12 10° ESE visible
23 Jan 4.8 19:24:21 10° SSE 19:27:52 30° SE 19:27:52 30° SE visible
23 Jan 6.1 21:10:23 10° SW 21:12:43 20° WSW 21:12:43 20° WSW visible
24 Jan 5.9 06:22:38 10° NNE 06:28:07 31° ENE 06:33:37 10° SE visible
24 Jan 3.8 19:50:04 10° S 19:56:06 76° ESE 19:56:06 76° ESE visible
24 Jan 6.5 21:39:08 10° W 21:41:00 13° W 21:41:00 13° W visible
25 Jan 4.8 06:48:28 10° N 06:54:41 58° E 07:00:53 10° SSE visible
25 Jan 5.2 18:33:41 10° SE 18:37:43 18° E 18:40:05 15° NE visible
25 Jan 4.4 20:16:31 10° SSW 20:22:33 57° W 20:25:03 35° NNW visible
26 Jan 6.7 05:31:33 10° NE 05:34:56 15° ENE 05:38:19 10° ESE visible
26 Jan 4.4 18:58:12 10° SSE 19:03:41 35° E 19:09:13 10° NNE visible
26 Jan 5.6 20:43:46 10° SW 20:49:06 30° WNW 20:54:30 10° NNW visible
27 Jan 6.0 05:56:25 10° NNE 06:01:44 28° ENE 06:07:02 10° SE visible
27 Jan 3.8 19:23:45 10° S 19:29:50 68° E 19:35:59 10° NNE visible
27 Jan 6.4 21:12:11 10° WSW 21:15:51 16° WNW 21:19:33 10° NNW visible
